This is the latest recevied weather packets stored in our database for station/object K7AEL. If no packets are shown the sender has not sent any weather packets the latest 10 day(s).
| Time | Temp. | Humidity | Pressure | Rain* | Wind** | Luminosity | Snow |
|---|---|---|---|---|---|---|---|
| 1777740971 | 27.22° C | 30% | 1016.6 hPa | 0 mm | - | 592 W/m² | - |
| 1777740364 | 26.67° C | 30% | 1016.5 hPa | 0 mm | - | 569 W/m² | - |
| 1777740061 | 26.67° C | 30% | 1016.3 hPa | 0 mm | - | 558 W/m² | - |
| 1777739756 | 26.67° C | 31% | 1016.4 hPa | 0 mm | - | 545 W/m² | - |
| 1777739454 | 26.67° C | 31% | 1016.1 hPa | 0 mm | - | 529 W/m² | - |
| 1777739150 | 26.11° C | 31% | 1016.3 hPa | 0 mm | - | 522 W/m² | - |
| 1777738848 | 26.11° C | 31% | 1016.3 hPa | 0 mm | - | 506 W/m² | - |
| 1777738544 | 25.56° C | 31% | 1016.1 hPa | 0 mm | - | 491 W/m² | - |
| 1777738242 | 26.11° C | 31% | 1016 hPa | 0 mm | - | 477 W/m² | - |
| 1777737940 | 26.11° C | 31% | 1016.3 hPa | 0 mm | - | 461 W/m² | - |
| 1777737638 | 25.56° C | 31% | 1015.9 hPa | 0 mm | - | 450 W/m² | - |
| 1777737337 | 26.11° C | 30% | 1016 hPa | 0 mm | - | 434 W/m² | - |
| 1777737033 | 25.56° C | 31% | 1016 hPa | 0 mm | - | 419 W/m² | - |
| 1777736728 | 25° C | 31% | 1016 hPa | 0 mm | - | 396 W/m² | - |
| 1777736101 | 25° C | 32% | 1016.3 hPa | 0 mm | - | 367 W/m² | - |
| 1777735798 | 25° C | 32% | 1016.3 hPa | 0 mm | - | 350 W/m² | - |
| 1777735495 | 25° C | 34% | 1016 hPa | 0 mm | - | 328 W/m² | - |
| 1777735193 | 23.89° C | 34% | 1015.9 hPa | 0 mm | - | 315 W/m² | - |
| 1777734890 | 23.33° C | 35% | 1015.9 hPa | 0 mm | - | 300 W/m² | - |
| 1777734587 | 22.78° C | 36% | 1015.8 hPa | 0 mm | - | 284 W/m² | - |
| 1777734284 | 22.22° C | 38% | 1016 hPa | 0 mm | - | 260 W/m² | - |
| 1777733980 | 22.22° C | 38% | 1015.7 hPa | 0 mm | - | 59 W/m² | - |
| 1777733677 | 21.67° C | 39% | 1015.6 hPa | 0 mm | - | 41 W/m² | - |
| 1777733373 | 21.67° C | 39% | 1015.8 hPa | 0 mm | - | 40 W/m² | - |
| 1777733070 | 21.11° C | 40% | 1015.6 hPa | 0 mm | - | 38 W/m² | - |
* Rain latest hour (hover to see other rain measurements)
** Current wind speed in m/s (hover to see current wind gust speed)